VTS850 PANC-PAGA

Flight info

Callsign VTS850
Flight time 0h 48m
Altitude 34000
Route TURNA8 TED J133 GAL
Aircraft MD88/M-SDE1FGW/SB1

Departure

Time 2026-04-25 14:58
Airport Ted Stevens Anchorage International Airport (PANC)

Arrival

Time 2026-04-25 15:47
Airport Edward G. Pitka Sr Airport (PAGA)
Time Latitude Longitude Altitude Speed Heading
2026-04-25 14:42 61.19597 -150.00494 160 ft 4 kts 259°
2026-04-25 14:42 61.19590 -150.00565 160 ft 5 kts 257°
2026-04-25 14:43 61.19580 -150.00642 160 ft 5 kts 255°
2026-04-25 14:43 61.19570 -150.00722 160 ft 5 kts 255°
2026-04-25 14:43 61.19555 -150.00833 160 ft 10 kts 255°
2026-04-25 14:43 61.19534 -150.00993 160 ft 11 kts 255°
2026-04-25 14:44 61.19516 -150.01134 160 ft 8 kts 255°
2026-04-25 14:44 61.19502 -150.01242 160 ft 7 kts 255°
2026-04-25 14:44 61.19489 -150.01343 160 ft 7 kts 253°
2026-04-25 14:44 61.19457 -150.01433 160 ft 9 kts 205°
2026-04-25 14:45 61.19390 -150.01425 160 ft 9 kts 165°
2026-04-25 14:45 61.19328 -150.01392 160 ft 9 kts 165°
2026-04-25 14:45 61.19250 -150.01347 160 ft 13 kts 165°
2026-04-25 14:45 61.19144 -150.01288 160 ft 17 kts 164°
2026-04-25 14:46 61.19037 -150.01225 160 ft 14 kts 164°
2026-04-25 14:46 61.18947 -150.01178 160 ft 12 kts 165°
2026-04-25 14:46 61.18865 -150.01131 160 ft 12 kts 165°
2026-04-25 14:46 61.18789 -150.01088 160 ft 10 kts 165°
2026-04-25 14:47 61.18727 -150.01054 160 ft 8 kts 165°
2026-04-25 14:47 61.18689 -150.01031 160 ft 8 kts 165°
2026-04-25 14:47 61.18610 -150.00987 160 ft 9 kts 166°
2026-04-25 14:47 61.18531 -150.00943 160 ft 16 kts 164°
2026-04-25 14:48 61.18416 -150.00874 160 ft 17 kts 163°
2026-04-25 14:48 61.18309 -150.00806 160 ft 14 kts 162°
2026-04-25 14:48 61.18219 -150.00764 160 ft 13 kts 167°
2026-04-25 14:48 61.18108 -150.00707 160 ft 16 kts 166°
2026-04-25 14:49 61.18002 -150.00650 160 ft 14 kts 164°
2026-04-25 14:49 61.17909 -150.00595 160 ft 13 kts 164°
2026-04-25 14:49 61.17829 -150.00549 160 ft 10 kts 165°
2026-04-25 14:49 61.17754 -150.00508 160 ft 10 kts 165°
2026-04-25 14:50 61.17689 -150.00472 160 ft 8 kts 165°
2026-04-25 14:50 61.17631 -150.00439 160 ft 9 kts 164°
2026-04-25 14:50 61.17571 -150.00403 160 ft 7 kts 155°
2026-04-25 14:50 61.17540 -150.00383 160 ft 6 kts 166°
2026-04-25 14:51 61.17528 -150.00375 160 ft 6 kts 166°
2026-04-25 14:51 61.17513 -150.00369 160 ft 6 kts 168°
2026-04-25 14:51 61.17448 -150.00339 160 ft 13 kts 167°
2026-04-25 14:51 61.17347 -150.00284 160 ft 15 kts 165°
2026-04-25 14:52 61.17287 -150.00160 160 ft 11 kts 86°
2026-04-25 14:52 61.17285 -150.00012 160 ft 8 kts 71°
2026-04-25 14:52 61.17336 -149.99983 161 ft 10 kts 347°
2026-04-25 14:52 61.17461 -150.00050 161 ft 50 kts 345°
2026-04-25 14:53 61.18280 -150.00508 161 ft 128 kts 346°
2026-04-25 14:53 61.18871 -150.00841 161 ft 46 kts 345°
2026-04-25 14:53 61.19060 -150.00977 160 ft 9 kts 288°
2026-04-25 14:53 61.19051 -150.01114 160 ft 8 kts 255°
2026-04-25 14:54 61.19010 -150.01196 160 ft 9 kts 186°
2026-04-25 14:54 61.18930 -150.01164 160 ft 14 kts 166°
2026-04-25 14:54 61.18888 -150.01143 160 ft 16 kts 166°
2026-04-25 14:55 61.18803 -150.01096 161 ft 17 kts 164°
2026-04-25 14:55 61.18686 -150.01031 160 ft 17 kts 165°
2026-04-25 14:55 61.18566 -150.00964 160 ft 20 kts 165°
2026-04-25 14:56 61.18413 -150.00877 160 ft 24 kts 165°
2026-04-25 14:56 61.18248 -150.00783 160 ft 25 kts 164°
2026-04-25 14:56 61.18079 -150.00688 160 ft 23 kts 166°
2026-04-25 14:56 61.17928 -150.00607 160 ft 22 kts 165°
2026-04-25 14:57 61.17781 -150.00526 160 ft 21 kts 165°
2026-04-25 14:57 61.17637 -150.00446 160 ft 20 kts 165°
2026-04-25 14:57 61.17560 -150.00276 160 ft 14 kts 68°
2026-04-25 14:57 61.17638 -150.00185 160 ft 12 kts 25°
2026-04-25 14:58 61.17797 -150.00240 161 ft 50 kts 345°
2026-04-25 14:58 61.18416 -150.00591 161 ft 129 kts 347°
2026-04-25 14:58 61.19457 -150.01150 436 ft 166 kts 346°
2026-04-25 14:58 61.20417 -150.01842 1573 ft 141 kts 335°
2026-04-25 14:59 61.21308 -150.02995 1970 ft 165 kts 327°
2026-04-25 14:59 61.22247 -150.04367 2540 ft 170 kts 326°
2026-04-25 14:59 61.23286 -150.06012 2753 ft 197 kts 322°
2026-04-25 14:59 61.24300 -150.07793 3351 ft 208 kts 321°
2026-04-25 15:00 61.25502 -150.09955 3672 ft 233 kts 320°
2026-04-25 15:00 61.26656 -150.12135 4599 ft 232 kts 318°
2026-04-25 15:00 61.27924 -150.14511 4990 ft 255 kts 319°
2026-04-25 15:00 61.29285 -150.17067 5376 ft 278 kts 317°
2026-04-25 15:01 61.30677 -150.19800 6164 ft 270 kts 316°
2026-04-25 15:01 61.32047 -150.22443 6324 ft 284 kts 318°
2026-04-25 15:01 61.33716 -150.24913 6990 ft 290 kts 323°
2026-04-25 15:01 61.35268 -150.27263 8158 ft 280 kts 323°
2026-04-25 15:02 61.36866 -150.29719 8734 ft 291 kts 322°
2026-04-25 15:02 61.38475 -150.32230 9635 ft 290 kts 321°
2026-04-25 15:02 61.40086 -150.34784 10316 ft 299 kts 320°
2026-04-25 15:02 61.41823 -150.37578 10365 ft 329 kts 321°
2026-04-25 15:03 61.43677 -150.40587 10772 ft 344 kts 320°
2026-04-25 15:03 61.45557 -150.43652 11586 ft 345 kts 320°
2026-04-25 15:03 61.47459 -150.46780 12276 ft 351 kts 319°
2026-04-25 15:03 61.49364 -150.49928 13013 ft 353 kts 319°
2026-04-25 15:04 61.51320 -150.53174 13694 ft 357 kts 319°
2026-04-25 15:04 61.53273 -150.56427 14342 ft 361 kts 319°
2026-04-25 15:04 61.55219 -150.59677 15006 ft 364 kts 319°
2026-04-25 15:04 61.57217 -150.63016 15655 ft 368 kts 319°
2026-04-25 15:05 61.59227 -150.66383 16303 ft 372 kts 318°
2026-04-25 15:05 61.61283 -150.69829 16957 ft 375 kts 318°
2026-04-25 15:05 61.63317 -150.73238 17547 ft 380 kts 318°
2026-04-25 15:06 61.67494 -150.80241 18816 ft 387 kts 318°
2026-04-25 15:06 61.69596 -150.83766 19437 ft 391 kts 318°
2026-04-25 15:06 61.71724 -150.87334 20080 ft 393 kts 318°
2026-04-25 15:06 61.73857 -150.90910 20686 ft 396 kts 318°
2026-04-25 15:07 61.76027 -150.94547 21292 ft 399 kts 318°
2026-04-25 15:07 61.78219 -150.98216 21911 ft 401 kts 318°
2026-04-25 15:07 61.80387 -151.01851 22400 ft 406 kts 318°
2026-04-25 15:07 61.82613 -151.05577 23039 ft 407 kts 318°
2026-04-25 15:08 61.84835 -151.09296 23471 ft 413 kts 318°
2026-04-25 15:08 61.87091 -151.13069 24098 ft 414 kts 319°
2026-04-25 15:08 61.89381 -151.16899 24552 ft 419 kts 319°
2026-04-25 15:08 61.91653 -151.20766 25066 ft 421 kts 317°
2026-04-25 15:09 61.93924 -151.24725 25513 ft 424 kts 317°
2026-04-25 15:09 61.96205 -151.28731 25932 ft 428 kts 317°
2026-04-25 15:09 62.00783 -151.36821 26776 ft 433 kts 316°
2026-04-25 15:10 62.03138 -151.40999 27132 ft 437 kts 316°
2026-04-25 15:10 62.05471 -151.45145 27645 ft 436 kts 316°
2026-04-25 15:10 62.10113 -151.53401 28525 ft 437 kts 316°
2026-04-25 15:11 62.12396 -151.57466 28965 ft 436 kts 316°
2026-04-25 15:11 62.14732 -151.61624 29426 ft 435 kts 316°
2026-04-25 15:11 62.17073 -151.65796 29781 ft 435 kts 315°
2026-04-25 15:12 62.21729 -151.74086 30515 ft 435 kts 315°
2026-04-25 15:12 62.24090 -151.78287 30871 ft 435 kts 315°
2026-04-25 15:12 62.26456 -151.82494 31271 ft 434 kts 315°
2026-04-25 15:12 62.27988 -151.85219 31434 ft 434 kts 315°
2026-04-25 15:13 62.31088 -151.90730 31749 ft 434 kts 315°
2026-04-25 15:13 62.35772 -151.99049 32193 ft 434 kts 315°
2026-04-25 15:13 62.38112 -152.03201 32376 ft 435 kts 315°
2026-04-25 15:14 62.40424 -152.07304 32560 ft 435 kts 315°
2026-04-25 15:14 62.42783 -152.11482 32755 ft 435 kts 315°
2026-04-25 15:14 62.45103 -152.15596 32879 ft 437 kts 315°
2026-04-25 15:14 62.47452 -152.19756 33108 ft 434 kts 315°
2026-04-25 15:15 62.49813 -152.23935 33233 ft 436 kts 316°
2026-04-25 15:15 62.52188 -152.28136 33390 ft 436 kts 316°
2026-04-25 15:15 62.54537 -152.32289 33547 ft 436 kts 316°
2026-04-25 15:15 62.56829 -152.36499 33699 ft 435 kts 315°
2026-04-25 15:16 62.59135 -152.40775 33796 ft 437 kts 315°
2026-04-25 15:16 62.61447 -152.45091 33940 ft 435 kts 315°
2026-04-25 15:16 62.66062 -152.53751 34016 ft 442 kts 315°
2026-04-25 15:17 62.73179 -152.67165 34035 ft 457 kts 314°
2026-04-25 15:18 62.78022 -152.76305 34042 ft 464 kts 314°
2026-04-25 15:18 62.85386 -152.90193 34068 ft 464 kts 315°
2026-04-25 15:19 62.89458 -152.97870 34077 ft 461 kts 315°
2026-04-25 15:19 62.95155 -153.08604 34093 ft 462 kts 315°
2026-04-25 15:20 63.00037 -153.17790 34097 ft 462 kts 316°
2026-04-25 15:20 63.04909 -153.26941 34106 ft 462 kts 316°
2026-04-25 15:21 63.09816 -153.36151 34114 ft 462 kts 316°
2026-04-25 15:21 63.14695 -153.45293 34106 ft 462 kts 316°
2026-04-25 15:22 63.19570 -153.54553 34108 ft 461 kts 315°
2026-04-25 15:22 63.24354 -153.63994 34104 ft 461 kts 315°
2026-04-25 15:23 63.29137 -153.73520 34092 ft 460 kts 314°
2026-04-25 15:23 63.33865 -153.82983 34111 ft 461 kts 314°
2026-04-25 15:24 63.38643 -153.92561 34093 ft 462 kts 314°
2026-04-25 15:24 63.42608 -154.00503 34089 ft 462 kts 314°
2026-04-25 15:25 63.48190 -154.11690 34060 ft 462 kts 315°
2026-04-25 15:25 63.52999 -154.21317 34052 ft 462 kts 315°
2026-04-25 15:26 63.57760 -154.30830 34047 ft 461 kts 315°
2026-04-25 15:26 63.62580 -154.40456 34054 ft 463 kts 315°
2026-04-25 15:27 63.64999 -154.45279 33787 ft 462 kts 315°
2026-04-25 15:27 63.67365 -154.49992 33353 ft 457 kts 315°
2026-04-25 15:27 63.72062 -154.59337 32555 ft 445 kts 315°
2026-04-25 15:28 63.74355 -154.63898 32151 ft 439 kts 315°
2026-04-25 15:28 63.76624 -154.68408 31744 ft 434 kts 314°
2026-04-25 15:28 63.78886 -154.72900 31333 ft 429 kts 314°
2026-04-25 15:28 63.81091 -154.77365 30766 ft 425 kts 312°
2026-04-25 15:29 63.83242 -154.81860 30189 ft 421 kts 312°
2026-04-25 15:29 63.85396 -154.86389 29653 ft 418 kts 312°
2026-04-25 15:29 63.87531 -154.90903 29112 ft 419 kts 311°
2026-04-25 15:29 63.89655 -154.95409 28551 ft 420 kts 311°
2026-04-25 15:30 63.91782 -154.99928 27935 ft 420 kts 311°
2026-04-25 15:30 63.93905 -155.04446 27335 ft 417 kts 311°
2026-04-25 15:30 63.96011 -155.08931 26722 ft 411 kts 311°
2026-04-25 15:30 63.98083 -155.13345 26122 ft 405 kts 311°
2026-04-25 15:31 64.00142 -155.17734 25508 ft 399 kts 311°
2026-04-25 15:31 64.02139 -155.21994 24918 ft 393 kts 311°
2026-04-25 15:31 64.04114 -155.26204 24297 ft 387 kts 311°
2026-04-25 15:31 64.06072 -155.30383 23685 ft 383 kts 311°
2026-04-25 15:32 64.07983 -155.34462 23098 ft 379 kts 312°
2026-04-25 15:32 64.09909 -155.38570 22518 ft 378 kts 312°
2026-04-25 15:32 64.11835 -155.42676 21930 ft 377 kts 313°
2026-04-25 15:33 64.15672 -155.50847 20780 ft 376 kts 313°
2026-04-25 15:33 64.17577 -155.54894 20205 ft 374 kts 313°
2026-04-25 15:33 64.19453 -155.58879 19648 ft 371 kts 314°
2026-04-25 15:33 64.21330 -155.62872 19098 ft 367 kts 314°
2026-04-25 15:34 64.23305 -155.66605 18444 ft 370 kts 321°
2026-04-25 15:34 64.25383 -155.70129 17777 ft 368 kts 320°
2026-04-25 15:34 64.27406 -155.73583 17114 ft 366 kts 320°
2026-04-25 15:34 64.28755 -155.75896 16669 ft 364 kts 320°
2026-04-25 15:35 64.33431 -155.83955 15128 ft 357 kts 321°
2026-04-25 15:35 64.35419 -155.87392 14470 ft 355 kts 321°
2026-04-25 15:35 64.37390 -155.90802 13820 ft 352 kts 321°
2026-04-25 15:36 64.41238 -155.97467 12553 ft 345 kts 320°
2026-04-25 15:36 64.43160 -156.00798 11921 ft 342 kts 320°
2026-04-25 15:36 64.45062 -156.04100 11307 ft 339 kts 320°
2026-04-25 15:37 64.46915 -156.07315 10710 ft 336 kts 320°
2026-04-25 15:37 64.48769 -156.10533 10124 ft 332 kts 321°
2026-04-25 15:37 64.50737 -156.13211 9664 ft 328 kts 336°
2026-04-25 15:37 64.52927 -156.14549 9198 ft 321 kts 345°
2026-04-25 15:38 64.55071 -156.15762 8765 ft 313 kts 345°
2026-04-25 15:38 64.57145 -156.16956 8352 ft 305 kts 345°
2026-04-25 15:38 64.59168 -156.18129 7939 ft 297 kts 345°
2026-04-25 15:38 64.61134 -156.19287 7543 ft 289 kts 344°
2026-04-25 15:39 64.63062 -156.20441 7155 ft 281 kts 344°
2026-04-25 15:39 64.64917 -156.21550 6783 ft 274 kts 344°
2026-04-25 15:39 64.66730 -156.22644 6437 ft 268 kts 343°
2026-04-25 15:39 64.68007 -156.23422 6243 ft 266 kts 345°
2026-04-25 15:40 64.68959 -156.24005 6075 ft 268 kts 344°
2026-04-25 15:40 64.70159 -156.24738 5875 ft 270 kts 345°
2026-04-25 15:40 64.72579 -156.26222 5450 ft 272 kts 344°
2026-04-25 15:40 64.74283 -156.27983 5149 ft 267 kts 316°
2026-04-25 15:41 64.75250 -156.31566 4811 ft 259 kts 279°
2026-04-25 15:41 64.75239 -156.35638 4531 ft 249 kts 260°
2026-04-25 15:41 64.75063 -156.39597 4400 ft 239 kts 261°
2026-04-25 15:41 64.74905 -156.43350 4248 ft 230 kts 261°
2026-04-25 15:42 64.74716 -156.47000 4090 ft 221 kts 259°
2026-04-25 15:42 64.74532 -156.50540 3897 ft 215 kts 260°
2026-04-25 15:42 64.74361 -156.53876 3768 ft 198 kts 259°
2026-04-25 15:42 64.74216 -156.56869 3495 ft 173 kts 259°
2026-04-25 15:43 64.74094 -156.59570 2998 ft 161 kts 259°
2026-04-25 15:43 64.73987 -156.62071 2573 ft 152 kts 260°
2026-04-25 15:43 64.73893 -156.64459 2222 ft 142 kts 262°
2026-04-25 15:43 64.73901 -156.66717 1898 ft 136 kts 263°
2026-04-25 15:44 64.73863 -156.68957 1622 ft 141 kts 265°
2026-04-25 15:44 64.73861 -156.71227 1553 ft 138 kts 266°
2026-04-25 15:44 64.73862 -156.73546 1347 ft 143 kts 266°
2026-04-25 15:44 64.73862 -156.75893 1285 ft 148 kts 267°
2026-04-25 15:45 64.73862 -156.78323 1330 ft 143 kts 265°
2026-04-25 15:45 64.73858 -156.80621 1179 ft 146 kts 267°
2026-04-25 15:45 64.73848 -156.82987 1081 ft 143 kts 266°
2026-04-25 15:45 64.73839 -156.84523 1030 ft 141 kts 265°
2026-04-25 15:46 64.73771 -156.87692 733 ft 150 kts 261°
2026-04-25 15:46 64.73601 -156.90085 375 ft 146 kts 265°
2026-04-25 15:46 64.73605 -156.92398 137 ft 144 kts 265°
2026-04-25 15:46 64.73586 -156.94350 132 ft 59 kts 271°
2026-04-25 15:47 64.73595 -156.94775 131 ft 14 kts 293°
2026-04-25 15:47 64.73666 -156.94864 132 ft 11 kts 355°
2026-04-25 15:47 64.73736 -156.94869 132 ft 8 kts 359°
2026-04-25 15:47 64.73791 -156.94867 132 ft 6 kts
2026-04-25 15:48 64.73830 -156.94855 132 ft 4 kts 26°
2026-04-25 15:48 64.73844 -156.94818 132 ft 2 kts 66°
2026-04-25 15:48 64.73848 -156.94777 132 ft 0 kts 85°